Location: Buffign�court
(47.8126°N, 6.0176°E)
Time: 15:43:42
(UTC+00:00)

Cosmos 2333 Rocket - Pass Details

Date: 16 June 2021
Orbit: 841 x 861 km, 70.8° (Epoch: 04 August)

Event Time Altitude Azimuth Distance (km) Brightness Sun altitude
Exits shadow 22:50:58 - 230° (SW) 2,882 4.7 -18.1°
Reaches altitude 10° 22:52:04 10° 233° (SW) 2,490 4.4 -18.1°
Maximum altitude 22:57:32 45° 306° (NW) 1,151 3.2 -18.3°
Drops below altitude 10° 23:03:02 10° 19° (NNE) 2,493 5.6 -18.4°
Sets 23:05:36 0° 25° (NNE) 3,429 6.3 -18.5°
